RYR7WV LIME-EDDB

Flight info

Callsign RYR7WV
Flight time N/A
Altitude 37000
Route DILEB DCT ABREG DCT LOKTA/N0461F350 DCT TIKNI T279 TAMEB T278 KLF KLF1R
Aircraft B738/M-SDE2E3FGHIRWXY/LB1

Departure

Time 2026-04-30 19:31
Airport Il Caravaggio International Airport (LIME)

Arrival

Time N/A
Airport Berlin Brandenburg Airport (EDDB)
Time Latitude Longitude Altitude Speed Heading
2026-04-30 19:20 45.66707 9.69676 786 ft 0 kts 195°
2026-04-30 19:26 45.66704 9.69677 786 ft 2 kts 177°
2026-04-30 19:26 45.66730 9.69853 786 ft 18 kts 82°
2026-04-30 19:26 45.66723 9.70061 786 ft 22 kts 98°
2026-04-30 19:27 45.66656 9.70468 786 ft 20 kts 106°
2026-04-30 19:27 45.66589 9.70827 786 ft 23 kts 104°
2026-04-30 19:28 45.66549 9.71045 786 ft 22 kts 105°
2026-04-30 19:28 45.66445 9.71518 786 ft 24 kts 105°
2026-04-30 19:29 45.66453 9.71969 786 ft 22 kts 105°
2026-04-30 19:29 45.66410 9.72178 786 ft 22 kts 104°
2026-04-30 19:30 45.66445 9.72520 786 ft 9 kts 280°
2026-04-30 19:30 45.66457 9.72453 786 ft 0 kts 285°
2026-04-30 19:31 45.66610 9.71629 786 ft 107 kts 285°
2026-04-30 19:31 45.66852 9.70322 789 ft 162 kts 284°
2026-04-30 19:31 45.67488 9.66989 1976 ft 179 kts 284°
2026-04-30 19:32 45.67659 9.65231 2679 ft 180 kts 261°
2026-04-30 19:32 45.67212 9.63536 3145 ft 195 kts 231°
2026-04-30 19:32 45.66096 9.62300 3368 ft 216 kts 199°
2026-04-30 19:32 45.64589 9.62245 3723 ft 226 kts 162°
2026-04-30 19:33 45.63207 9.63499 3911 ft 251 kts 129°
2026-04-30 19:33 45.62510 9.65465 4392 ft 260 kts 102°
2026-04-30 19:33 45.62443 9.67492 5019 ft 262 kts 82°
2026-04-30 19:34 45.63131 9.69889 5759 ft 266 kts 51°
2026-04-30 19:34 45.64587 9.71437 6478 ft 269 kts 19°
2026-04-30 19:34 45.68321 9.71391 7947 ft 274 kts 353°
2026-04-30 19:35 45.70219 9.71006 8650 ft 277 kts 352°
2026-04-30 19:35 45.72133 9.70620 9393 ft 279 kts 353°
2026-04-30 19:35 45.74065 9.70247 10136 ft 281 kts 353°
2026-04-30 19:35 45.76023 9.69885 10652 ft 291 kts 353°
2026-04-30 19:36 45.78102 9.69513 10836 ft 312 kts 353°
2026-04-30 19:36 45.80328 9.69126 10999 ft 332 kts 354°
2026-04-30 19:36 45.85180 9.68295 11273 ft 369 kts 354°
2026-04-30 19:37 45.85999 9.68156 11352 ft 373 kts 354°
2026-04-30 19:37 45.87766 9.67856 11640 ft 378 kts 354°
2026-04-30 19:37 45.89767 9.67515 12057 ft 381 kts 354°
2026-04-30 19:38 45.92420 9.67064 12689 ft 382 kts 354°
2026-04-30 19:38 45.95057 9.66616 13369 ft 383 kts 354°
2026-04-30 19:38 45.97695 9.66154 13977 ft 386 kts 353°
2026-04-30 19:38 46.00352 9.65424 14532 ft 390 kts 349°
2026-04-30 19:39 46.03012 9.64523 15146 ft 392 kts 348°
2026-04-30 19:39 46.05289 9.63718 15671 ft 394 kts 348°
2026-04-30 19:40 46.06829 9.63173 16041 ft 394 kts 348°
2026-04-30 19:41 46.09475 9.62249 16545 ft 397 kts 349°
2026-04-30 19:41 46.12196 9.61317 17125 ft 400 kts 349°
2026-04-30 19:41 46.13141 9.60997 17319 ft 401 kts 349°
2026-04-30 19:41 46.13762 9.60787 17448 ft 402 kts 349°
2026-04-30 19:42 46.14040 9.60693 17506 ft 402 kts 349°
2026-04-30 19:42 46.16541 9.59852 18047 ft 404 kts 349°
2026-04-30 19:42 46.19278 9.58936 18439 ft 410 kts 349°
2026-04-30 19:42 46.22088 9.57995 18837 ft 414 kts 349°
2026-04-30 19:43 46.24907 9.57049 19379 ft 415 kts 349°
2026-04-30 19:43 46.27701 9.56110 19861 ft 416 kts 349°
2026-04-30 19:43 46.30543 9.55161 20323 ft 418 kts 350°
2026-04-30 19:44 46.36295 9.53827 21045 ft 424 kts 355°
2026-04-30 19:44 46.39250 9.53303 21420 ft 425 kts 355°
2026-04-30 19:44 46.42174 9.52799 21958 ft 425 kts 355°
2026-04-30 19:44 46.45136 9.52278 22413 ft 427 kts 355°
2026-04-30 19:45 46.48078 9.51746 22791 ft 430 kts 355°
2026-04-30 19:45 46.51038 9.51196 23162 ft 433 kts 355°
2026-04-30 19:45 46.54040 9.50628 23562 ft 435 kts 355°
2026-04-30 19:45 46.57067 9.50047 23936 ft 437 kts 355°